haerbin , China , ASIA

  • Tuesday
    June 19

      Thundershower

      57 °F

      Northwest

       

  • Wednesday
    June 20

    Thundershower  Cloudy

    72 °F  57 °F

    Northwest  West

    3~4L    

  • Thursday
    June 21

    Cloudy  Sunny

    77 °F  57 °F

    West  Northwest

        

  • Friday
    June 22

    Cloudy  Cloudy

    81 °F  63 °F

    Northwest  East

        

  • Saturday
    June 23

    Cloudy  Cloudy

    86 °F  66 °F

    Northwest  South

        

  • Sunday
    June 24

    Cloudy  Cloudy

    88 °F  66 °F

    South  Northeast

        

  • Monday
    June 25

    Thundershower  Thundershower

    81 °F  64 °F

    East  Northwest

        

Date   Weather Temperature Humidity Total_rain Visibility Wind
23:00 Cloudy 59°F 98.7% 0mm 999.9km Northwest  1.1m/s
02:00 Cloudy 58°F 97.8% 0mm 999.9km Northwest  1.0m/s
05:00 Cloudy 58°F 96.8% 0mm 999.9km Northwest  1.4m/s
08:00 Thundershower 67°F 86.1% 0.6mm 999.9km Northwest  1.5m/s
11:00 Thundershower 69°F 83% 2.8mm 999.9km Northwest  3.0m/s
14:00 Thundershower 71°F 76.6% 1.8mm 999.9km Northwest  3.0m/s
17:00 Thundershower 69°F 79.2% 2.1mm 999.9km Northwest  2.7m/s
20:00 Cloudy 62°F 68.8% 0mm 999.9km Northwest  1.4m/s
23:00 Cloudy 60°F 91.4% 0mm 999.9km Northwest  1.1m/s
02:00 Cloudy 58°F 91.8% 0mm 999.9km Northwest  1.1m/s
05:00 Cloudy 59°F 90.5% 0mm 999.9km Northwest  0.7m/s
08:00 Cloudy 69°F 71.8% 0mm 999.9km Northwest  1.4m/s
11:00 Cloudy 72°F 64.1% 0mm 999.9km Northwest  2.7m/s
14:00 Cloudy 77°F 71.3% 0mm 999.9km Northwest  2.5m/s
17:00 Cloudy 73°F 74.6% 0mm 999.9km Northwest  2.3m/s
20:00 Cloudy 65°F 61.4% 0mm 999.9km Northwest  1.0m/s
23:00 Sunny 61°F 80.8% 0mm 999.9km Northwest  1.4m/s
02:00 Sunny 58°F 86.3% 0mm 999.9km Northwest  1.5m/s
05:00 Sunny 60°F 83.2% 0mm 999.9km Northwest  0.7m/s
08:00 Sunny 69°F 66.4% 0mm 999.9km Northwest  1.3m/s
11:00 Cloudy 76°F 59.1% 0mm 999.9km Northwest  2.2m/s
14:00 Cloudy 80°F 50.2% 0mm 999.9km Northwest  2.8m/s
17:00 Cloudy 80°F 52.5% 0mm 999.9km Northwest  1.7m/s
20:00 Cloudy 73°F 46.1% 0mm 999.9km Southwest  1.0m/s
23:00 Cloudy 68°F 84.4% 0mm 999.9km Southwest  1.4m/s
02:00 Cloudy 63°F 83.4% 0mm 999.9km Southwest  2.0m/s
05:00 Cloudy 63°F 82.2% 0mm 999.9km Southwest  1.6m/s
08:00 Cloudy 76°F 66.4% 0mm 999.9km Northwest  1.9m/s
11:00 Cloudy 85°F 58.9% 0mm 999.9km Northwest  1.5m/s
14:00 Cloudy 86°F 49.1% 0mm 999.9km Northwest  2.7m/s
17:00 Cloudy 84°F 54.1% 0mm 999.9km Northeast  3.3m/s
20:00 Cloudy 75°F 47.4% 0mm 999.9km Northeast  0.5m/s
23:00 Cloudy 72°F 75.5% 0mm 999.9km Northeast  2.0m/s
02:00 Cloudy 69°F 78.4% 0mm 999.9km Northeast  1.8m/s
05:00 Cloudy 67°F 76.7% 0mm 999.9km Southeast  1.6m/s
08:00 Cloudy 75°F 63.3% 0mm 999.9km Southeast  2.5m/s
11:00 Cloudy 80°F 62.7% 0mm 999.9km Southwest  3.3m/s
14:00 Cloudy 87°F 53.4% 0mm 999.9km Southeast  3.7m/s
17:00 Cloudy 81°F 57% 0mm 999.9km Southwest  2.9m/s
20:00 Cloudy 79°F 60.6% 0mm 999.9km Southeast  2.1m/s
23:00 Cloudy 74°F 77.5% 0mm 999.9km Southwest  1.8m/s
02:00 Cloudy 71°F 68.3% 0mm 999.9km Southwest  1.8m/s
05:00 Cloudy 67°F 70.2% 0mm 999.9km Southwest  1.0m/s
08:00 Cloudy 75°F 72.1% 0mm 999.9km Southwest  2.9m/s
11:00 Thundershower 80°F 70.3% 0.2mm 999.9km Southwest  1.7m/s
14:00 Thundershower 76°F 69.6% 2.8mm 999.9km Southwest  3.3m/s
17:00 Sunny 76°F 68.9% 0mm 999.9km Southwest  2.6m/s
20:00 Thundershower 75°F 65% 1.5mm 999.9km Southwest  2.3m/s
23:00 Thundershower 71°F 68.6% 2.3mm 999.9km Southwest  1.8m/s
02:00 Thundershower 65°F 80.1% 2.3mm 999.9km Southwest  1.8m/s
05:00 Thundershower 66°F 77.5% 2.3mm 999.9km Southwest  2.2m/s